Location: Unspecified
(0.0000°N, 0.0000°E)
Time: 12:05:06
(UTC+02:00)

Ariane H10 - Visible Passes

Search period start: 29 April 2016 00:00
Search period end: 09 May 2016 00:00
Orbit: 411 x 35086 km, 3.8° (Epoch: 28 April)

Date Brightness Start Highest point End Pass type
(mag) Time Alt. Az. Time Alt. Az. Time Alt. Az.
29 Apr 6.7 14:40:58 10° W 22:34:26 53° E 00:19:01 10° E visible
30 Apr 8.1 22:28:50 10° W 00:03:21 34° W 07:54:39 10° ENE visible
01 May 8.0 18:41:59 10° W 19:45:34 86° S 04:29:02 10° E visible
02 May 7.2 15:13:50 10° W 23:09:29 64° E 00:56:00 10° E visible
03 May 10.9 23:15:34 10° W 00:36:25 24° W 03:21:38 10° W visible
04 May 7.8 19:16:35 10° W 21:02:50 80° WSW 05:02:15 10° E visible
05 May 7.7 15:46:50 10° W 23:45:28 76° ESE 01:31:42 10° E visible
06 May 10.2 18:03:39 10° E 20:13:03 19° E 21:20:03 12° E visible
07 May 11.1 00:19:43 10° W 01:08:48 13° W 02:18:54 10° W visible
07 May 7.7 19:51:55 10° W 21:39:00 69° WSW 05:35:18 10° E visible
